Flag for Austria Past Weather in Bruck an der Leitha, Lower Austria, Austria — Yesterday and Last 2 Weeks

Now
71 °F

Clear.


Feels Like: 74 °F
Forecast: 64 / 87 °F
Wind: 6 mph from Southeast

Location: Wien / Schwechat-Flughafen

Current Time: Aug 28, 2016 at 12:32:36 AM

Latest Report: Aug 28, 2016 at 12:00 AM


Visibility: 9 mi

Pressure: 30.09 "Hg

Humidity: 70%

Dew Point: 60 °F

Location of Bruck an der LeithaLocation

Past Weather in Bruck an der Leitha — Graph

°F

Bruck an der Leitha Temperature Yesterday

Maximum temperature yesterday: 84 °F (at 3:00 PM)
Minimum temperature yesterday: 62 °F (at 5:00 AM)
Average temperature yesterday: 74 °F

High & Low Weather Summary for the Past Weeks

 TemperatureHumidityPressure
High84 °F (Aug 27, 3:00 PM)99% (Aug 16, 6:00 AM)30.35 "Hg (Aug 16, 6:00 AM)
Low54 °F (Aug 25, 6:00 AM)40% (Aug 26, 3:00 PM)29.81 "Hg (Aug 18, 4:00 PM)
Average68 °F71%30.10 "Hg
* Reported Aug 12 11:00 PM — Aug 27 11:00 PM, Bruck an der Leitha, Weather by CustomWeather, © 2016

Note: Actual official high and low records may vary slightly from our data, if they occured in-between our weather recording intervals... More about our weather records

Advertising

Bruck an der Leitha Weather History for the Previous 24 Hours

Scroll right to see more
 ConditionsComfort  
Time TempWeatherWind HumidityBarometerVisibility
11:00 PM
Sat, Aug 27
72 °FClear.6 mph67%30.09 "Hg11 mi
10:00 PM73 °FClear.6 mph64%30.09 "Hg14 mi
9:00 PM74 °FClear.6 mph60%30.09 "Hg19 mi
8:00 PM76 °FClear.5 mph56%30.08 "Hg22 mi
7:00 PM80 °FSunny.6 mph49%30.08 "Hg19 mi
6:00 PM82 °FSunny.8 mph44%30.08 "Hg19 mi
5:00 PM83 °FSunny.8 mph43%30.09 "Hg14 mi
4:00 PM83 °FSunny.8 mph42%30.10 "Hg14 mi
3:00 PM84 °FSunny.8 mph44%30.11 "Hg11 mi
2:00 PM83 °FPassing clouds.8 mph45%30.12 "Hg12 mi
1:00 PM81 °FSunny.9 mph48%30.13 "Hg17 mi
12:00 PM80 °FSunny.9 mph53%30.14 "Hg12 mi
11:00 AM78 °FSunny.9 mph52%N/A16 mi
10:00 AM76 °FSunny.7 mph58%30.15 "Hg13 mi
9:00 AM72 °FSunny.5 mph65%30.15 "Hg16 mi
8:00 AM67 °FSunny.N/A75%30.15 "Hg22 mi
7:00 AM62 °FSunny.N/A82%30.16 "Hg17 mi
5:00 AM62 °FClear.3 mph81%30.15 "Hg22 mi
4:00 AM62 °FClear.N/A80%30.15 "Hg22 mi
3:00 AM62 °FClear.N/A78%30.15 "Hg22 mi
2:00 AM63 °FClear.3 mph74%30.15 "Hg28 mi
1:00 AM64 °FClear.3 mph73%30.15 "Hg28 mi
Weather by CustomWeather, © 2016

See weather overviewHow to use our weather pages